Time,TemperatureF,DewpointF,PressureIn,WindDirection,WindDirectionDegrees,WindSpeedMPH,WindSpeedGustMPH,Humidity,HourlyPrecipIn,Conditions,Clouds,dailyrainin,SoftwareType,DateUTC
2013-01-20 00:14:00,7.0,7.0,-100.00,NW,310,34.0,40.0,99,0.00,,,0.00,,2013-01-20 00:14:00,
2013-01-20 00:53:00,6.0,5.0,-100.00,NW,305,30.0,42.0,99,0.00,,,0.00,,2013-01-20 00:53:00,
2013-01-20 01:03:00,6.0,5.0,-100.00,NW,310,32.0,40.0,99,0.00,,,0.00,,2013-01-20 01:03:00,
2013-01-20 01:18:00,5.0,5.0,-100.00,NW,310,29.0,39.0,99,0.00,,,0.00,,2013-01-20 01:18:00,
2013-01-20 01:35:00,5.0,3.0,-100.00,NW,305,27.0,34.0,97,0.00,,,0.00,,2013-01-20 01:35:00,
2013-01-20 01:56:00,4.0,3.0,-100.00,NW,310,28.0,36.0,95,0.00,,,0.00,,2013-01-20 01:56:00,
2013-01-20 02:14:00,4.0,1.0,-100.00,NW,305,30.0,38.0,89,0.00,,,0.00,,2013-01-20 02:14:00,
2013-01-20 02:25:00,3.0,1.0,-100.00,NW,305,32.0,44.0,95,0.00,,,0.00,,2013-01-20 02:25:00,
2013-01-20 02:34:00,3.0,1.0,-100.00,NW,305,29.0,37.0,92,0.00,,,0.00,,2013-01-20 02:34:00,
2013-01-20 03:07:00,3.0,1.0,-100.00,NW,305,28.0,35.0,95,0.00,,,0.00,,2013-01-20 03:07:00,
2013-01-20 03:14:00,2.0,1.0,-100.00,NW,310,27.0,34.0,95,0.00,,,0.00,,2013-01-20 03:14:00,
2013-01-20 03:24:00,2.0,1.0,-100.00,NW,310,27.0,32.0,97,0.00,,,0.00,,2013-01-20 03:24:00,
2013-01-20 03:36:00,2.0,1.0,-100.00,WNW,300,24.0,34.0,99,0.00,,,0.00,,2013-01-20 03:36:00,
2013-01-20 03:45:00,2.0,1.0,-100.00,NW,305,21.0,29.0,98,0.00,,,0.00,,2013-01-20 03:45:00,
2013-01-20 03:53:00,1.0,0.0,-100.00,NW,310,22.0,31.0,94,0.00,,,0.00,,2013-01-20 03:53:00,
2013-01-20 04:04:00,1.0,1.0,-100.00,NW,305,22.0,27.0,98,0.00,,,0.00,,2013-01-20 04:04:00,
2013-01-20 04:14:00,1.0,0.0,-100.00,NW,305,22.0,31.0,91,0.00,,,0.00,,2013-01-20 04:14:00,
2013-01-20 04:24:00,1.0,0.0,-100.00,NW,305,18.0,26.0,91,0.00,,,0.00,,2013-01-20 04:24:00,
2013-01-20 04:35:00,1.0,-2.0,-100.00,NW,305,20.0,28.0,86,0.00,,,0.00,,2013-01-20 04:35:00,
2013-01-20 04:54:00,0.0,-2.0,-100.00,WNW,300,24.0,30.0,89,0.00,,,0.00,,2013-01-20 04:54:00,
2013-01-20 05:03:00,0.0,-2.0,-100.00,NW,305,23.0,31.0,89,0.00,,,0.00,,2013-01-20 05:03:00,
2013-01-20 05:12:00,0.0,-4.0,-100.00,NW,310,26.0,31.0,86,0.00,,,0.00,,2013-01-20 05:12:00,
2013-01-20 05:22:00,0.0,-4.0,-100.00,NW,310,24.0,30.0,83,0.00,,,0.00,,2013-01-20 05:22:00,
2013-01-20 05:32:00,0.0,-4.0,-100.00,NW,315,21.0,30.0,87,0.00,,,0.00,,2013-01-20 05:32:00,
2013-01-20 05:42:00,-1.0,-2.0,-100.00,NW,310,18.0,27.0,93,0.00,,,0.00,,2013-01-20 05:42:00,
2013-01-20 05:53:00,-1.0,-2.0,-100.00,NW,305,20.0,25.0,93,0.00,,,0.00,,2013-01-20 05:53:00,
2013-01-20 06:02:00,-1.0,-2.0,-100.00,NW,310,17.0,25.0,92,0.00,,,0.00,,2013-01-20 06:02:00,
2013-01-20 06:12:00,-1.0,-2.0,-100.00,NW,305,19.0,26.0,94,0.00,,,0.00,,2013-01-20 06:12:00,
2013-01-20 06:22:00,-1.0,-4.0,-100.00,NW,310,20.0,26.0,87,0.00,,,0.00,,2013-01-20 06:22:00,
2013-01-20 06:33:00,-1.0,-4.0,-100.00,NW,305,17.0,23.0,85,0.00,,,0.00,,2013-01-20 06:33:00,
2013-01-20 06:42:00,-1.0,-4.0,-100.00,NW,305,17.0,24.0,88,0.00,,,0.00,,2013-01-20 06:42:00,
2013-01-20 06:52:00,-1.0,-4.0,-100.00,NW,305,17.0,21.0,89,0.00,,,0.00,,2013-01-20 06:52:00,
2013-01-20 07:02:00,-1.0,-4.0,-100.00,NW,305,19.0,24.0,88,0.00,,,0.00,,2013-01-20 07:02:00,
2013-01-20 07:12:00,-1.0,-4.0,-100.00,NW,310,19.0,24.0,86,0.00,,,0.00,,2013-01-20 07:12:00,
2013-01-20 07:22:00,-1.0,-4.0,-100.00,NW,305,18.0,22.0,86,0.00,,,0.00,,2013-01-20 07:22:00,
2013-01-20 07:32:00,-2.0,-4.0,-100.00,NW,315,15.0,24.0,88,0.00,,,0.00,,2013-01-20 07:32:00,
2013-01-20 07:42:00,-2.0,-4.0,-100.00,NW,305,17.0,22.0,89,0.00,,,0.00,,2013-01-20 07:42:00,
2013-01-20 07:52:00,-1.0,-4.0,-100.00,NW,305,19.0,24.0,88,0.00,,,0.00,,2013-01-20 07:52:00,
2013-01-20 08:02:00,-1.0,-4.0,-100.00,NW,305,21.0,24.0,86,0.00,,,0.00,,2013-01-20 08:02:00,
2013-01-20 08:12:00,-1.0,-4.0,-100.00,WNW,300,18.0,23.0,88,0.00,,,0.00,,2013-01-20 08:12:00,
2013-01-20 08:22:00,-1.0,-4.0,-100.00,NW,305,19.0,24.0,87,0.00,,,0.00,,2013-01-20 08:22:00,
2013-01-20 08:32:00,-1.0,-4.0,-100.00,NW,305,16.0,23.0,86,0.00,,,0.00,,2013-01-20 08:32:00,
2013-01-20 08:42:00,-1.0,-4.0,-100.00,NW,305,17.0,25.0,85,0.00,,,0.00,,2013-01-20 08:42:00,
2013-01-20 08:52:00,-1.0,-4.0,-100.00,NW,305,17.0,23.0,86,0.00,,,0.00,,2013-01-20 08:52:00,
2013-01-20 09:02:00,-1.0,-4.0,-100.00,NW,305,18.0,24.0,86,0.00,,,0.00,,2013-01-20 09:02:00,
2013-01-20 09:12:00,-1.0,-4.0,-100.00,NW,305,16.0,24.0,85,0.00,,,0.00,,2013-01-20 09:12:00,
2013-01-20 09:22:00,-1.0,-4.0,-100.00,NW,305,14.0,21.0,85,0.00,,,0.00,,2013-01-20 09:22:00,
2013-01-20 09:33:00,-1.0,-6.0,-100.00,NW,315,13.0,17.0,85,0.00,,,0.00,,2013-01-20 09:33:00,
2013-01-20 09:42:00,-1.0,-6.0,-100.00,NW,310,16.0,19.0,84,0.00,,,0.00,,2013-01-20 09:42:00,
2013-01-20 09:52:00,-1.0,-6.0,-100.00,NW,310,15.0,20.0,84,0.00,,,0.00,,2013-01-20 09:52:00,
2013-01-20 10:02:00,-1.0,-6.0,-100.00,NW,315,12.0,17.0,84,0.00,,,0.00,,2013-01-20 10:02:00,
2013-01-20 10:12:00,-1.0,-6.0,-100.00,NW,315,11.0,17.0,85,0.00,,,0.00,,2013-01-20 10:12:00,
2013-01-20 10:22:00,-2.0,-6.0,-100.00,NW,315,11.0,16.0,85,0.00,,,0.00,,2013-01-20 10:22:00,
2013-01-20 10:32:00,-2.0,-6.0,-100.00,NW,310,11.0,16.0,85,0.00,,,0.00,,2013-01-20 10:32:00,
2013-01-20 10:42:00,-2.0,-6.0,-100.00,NW,315,11.0,15.0,85,0.00,,,0.00,,2013-01-20 10:42:00,
2013-01-20 10:52:00,-1.0,-4.0,-100.00,NW,305,12.0,14.0,86,0.00,,,0.00,,2013-01-20 10:52:00,
2013-01-20 11:02:00,-1.0,-6.0,-100.00,WNW,300,12.0,16.0,85,0.00,,,0.00,,2013-01-20 11:02:00,
2013-01-20 11:12:00,-1.0,-6.0,-100.00,NW,315,12.0,17.0,84,0.00,,,0.00,,2013-01-20 11:12:00,
2013-01-20 11:22:00,-1.0,-4.0,-100.00,WNW,300,11.0,16.0,85,0.00,,,0.00,,2013-01-20 11:22:00,
2013-01-20 11:32:00,-1.0,-4.0,-100.00,WNW,300,13.0,16.0,86,0.00,,,0.00,,2013-01-20 11:32:00,
2013-01-20 11:42:00,-1.0,-4.0,-100.00,NW,305,12.0,16.0,87,0.00,,,0.00,,2013-01-20 11:42:00,
2013-01-20 11:53:00,-1.0,-4.0,-100.00,WNW,300,12.0,16.0,85,0.00,,,0.00,,2013-01-20 11:53:00,
2013-01-20 12:03:00,-1.0,-4.0,-100.00,WNW,295,8.0,12.0,86,0.00,,,0.00,,2013-01-20 12:03:00,
2013-01-20 12:12:00,-1.0,-4.0,-100.00,NW,305,11.0,14.0,85,0.00,,,0.00,,2013-01-20 12:12:00,
2013-01-20 12:22:00,-1.0,-4.0,-100.00,NW,310,9.0,13.0,84,0.00,,,0.00,,2013-01-20 12:22:00,
2013-01-20 12:33:00,-1.0,-4.0,-100.00,WNW,300,7.0,11.0,86,0.00,,,0.00,,2013-01-20 12:33:00,
2013-01-20 12:43:00,-1.0,-4.0,-100.00,WNW,300,10.0,12.0,87,0.00,,,0.00,,2013-01-20 12:43:00,
2013-01-20 12:52:00,-1.0,-4.0,-100.00,WNW,295,9.0,12.0,85,0.00,,,0.00,,2013-01-20 12:52:00,
2013-01-20 13:02:00,-1.0,-4.0,-100.00,NW,305,8.0,12.0,85,0.00,,,0.00,,2013-01-20 13:02:00,
2013-01-20 13:12:00,-1.0,-4.0,-100.00,WNW,295,7.0,12.0,85,0.00,,,0.00,,2013-01-20 13:12:00,
2013-01-20 13:23:00,-1.0,-4.0,-100.00,WNW,295,7.0,10.0,84,0.00,,,0.00,,2013-01-20 13:23:00,
2013-01-20 13:33:00,-1.0,-4.0,-100.00,WNW,295,6.0,11.0,84,0.00,,,0.00,,2013-01-20 13:33:00,
2013-01-20 13:42:00,-1.0,-4.0,-100.00,WNW,290,8.0,11.0,83,0.00,,,0.00,,2013-01-20 13:42:00,
2013-01-20 13:52:00,0.0,-4.0,-100.00,WNW,300,11.0,14.0,82,0.00,,,0.00,,2013-01-20 13:52:00,
2013-01-20 14:02:00,0.0,-4.0,-100.00,WNW,285,9.0,13.0,83,0.00,,,0.00,,2013-01-20 14:02:00,
2013-01-20 14:12:00,0.0,-4.0,-100.00,West,280,11.0,13.0,83,0.00,,,0.00,,2013-01-20 14:12:00,
2013-01-20 14:22:00,0.0,-4.0,-100.00,WNW,285,11.0,16.0,83,0.00,,,0.00,,2013-01-20 14:22:00,
2013-01-20 14:32:00,0.0,-4.0,-100.00,WNW,285,12.0,14.0,83,0.00,,,0.00,,2013-01-20 14:32:00,
2013-01-20 14:42:00,0.0,-4.0,-100.00,WNW,285,10.0,14.0,85,0.00,,,0.00,,2013-01-20 14:42:00,
2013-01-20 14:52:00,0.0,-2.0,-100.00,West,280,12.0,14.0,85,0.00,,,0.00,,2013-01-20 14:52:00,
2013-01-20 15:03:00,1.0,-2.0,-100.00,WNW,285,14.0,15.0,89,0.00,,,0.00,,2013-01-20 15:03:00,
2013-01-20 15:12:00,1.0,0.0,-100.00,West,275,13.0,15.0,91,0.00,,,0.00,,2013-01-20 15:12:00,
2013-01-20 15:23:00,1.0,0.0,-100.00,WNW,285,13.0,16.0,92,0.00,,,0.00,,2013-01-20 15:23:00,
2013-01-20 15:33:00,1.0,0.0,-100.00,West,280,12.0,15.0,93,0.00,,,0.00,,2013-01-20 15:33:00,
2013-01-20 15:42:00,1.0,0.0,-100.00,WNW,285,12.0,14.0,91,0.00,,,0.00,,2013-01-20 15:42:00,
2013-01-20 15:52:00,2.0,0.0,-100.00,West,280,12.0,14.0,89,0.00,,,0.00,,2013-01-20 15:52:00,
2013-01-20 16:02:00,2.0,0.0,-100.00,WNW,285,9.0,13.0,89,0.00,,,0.00,,2013-01-20 16:02:00,
2013-01-20 16:12:00,2.0,0.0,-100.00,WNW,285,10.0,14.0,87,0.00,,,0.00,,2013-01-20 16:12:00,
2013-01-20 16:23:00,2.0,0.0,-100.00,WNW,295,9.0,13.0,87,0.00,,,0.00,,2013-01-20 16:23:00,
2013-01-20 16:33:00,3.0,0.0,-100.00,West,280,7.0,12.0,88,0.00,,,0.00,,2013-01-20 16:33:00,
2013-01-20 16:42:00,3.0,0.0,-100.00,WNW,285,9.0,12.0,87,0.00,,,0.00,,2013-01-20 16:42:00,
2013-01-20 16:52:00,3.0,0.0,-100.00,WNW,285,9.0,12.0,85,0.00,,,0.00,,2013-01-20 16:52:00,
2013-01-20 17:03:00,3.0,0.0,-100.00,West,275,11.0,13.0,88,0.00,,,0.00,,2013-01-20 17:03:00,
2013-01-20 17:12:00,3.0,1.0,-100.00,West,280,10.0,13.0,90,0.00,,,0.00,,2013-01-20 17:12:00,
2013-01-20 17:22:00,4.0,1.0,-100.00,West,265,10.0,12.0,89,0.00,,,0.00,,2013-01-20 17:22:00,
2013-01-20 17:33:00,4.0,1.0,-100.00,West,280,12.0,15.0,90,0.00,,,0.00,,2013-01-20 17:33:00,
2013-01-20 17:42:00,4.0,1.0,-100.00,West,280,12.0,16.0,87,0.00,,,0.00,,2013-01-20 17:42:00,
2013-01-20 17:52:00,4.0,1.0,-100.00,West,280,12.0,14.0,87,0.00,,,0.00,,2013-01-20 17:52:00,
2013-01-20 18:02:00,5.0,1.0,-100.00,West,280,13.0,15.0,86,0.00,,,0.00,,2013-01-20 18:02:00,
2013-01-20 18:12:00,5.0,1.0,-100.00,WNW,285,12.0,15.0,87,0.00,,,0.00,,2013-01-20 18:12:00,
2013-01-20 18:23:00,6.0,1.0,-100.00,West,280,15.0,17.0,85,0.00,,,0.00,,2013-01-20 18:23:00,
2013-01-20 18:33:00,6.0,1.0,-100.00,WNW,290,13.0,17.0,81,0.00,,,0.00,,2013-01-20 18:33:00,
2013-01-20 18:42:00,6.0,1.0,-100.00,WNW,285,16.0,19.0,82,0.00,,,0.00,,2013-01-20 18:42:00,
2013-01-20 18:53:00,6.0,3.0,-100.00,West,280,15.0,20.0,83,0.00,,,0.00,,2013-01-20 18:53:00,
2013-01-20 19:02:00,6.0,3.0,-100.00,WNW,285,13.0,17.0,85,0.00,,,0.00,,2013-01-20 19:02:00,
2013-01-20 19:12:00,7.0,3.0,-100.00,WNW,285,14.0,17.0,86,0.00,,,0.00,,2013-01-20 19:12:00,
2013-01-20 19:22:00,7.0,3.0,-100.00,West,280,16.0,19.0,85,0.00,,,0.00,,2013-01-20 19:22:00,
2013-01-20 19:33:00,8.0,5.0,-100.00,West,280,13.0,18.0,87,0.00,,,0.00,,2013-01-20 19:33:00,
2013-01-20 19:42:00,7.0,3.0,-100.00,West,280,17.0,21.0,83,0.00,,,0.00,,2013-01-20 19:42:00,
2013-01-20 19:52:00,7.0,3.0,-100.00,West,265,14.0,17.0,83,0.00,,,0.00,,2013-01-20 19:52:00,
2013-01-20 20:03:00,8.0,5.0,-100.00,West,275,17.0,20.0,85,0.00,,,0.00,,2013-01-20 20:03:00,
2013-01-20 20:12:00,8.0,3.0,-100.00,WNW,285,14.0,20.0,83,0.00,,,0.00,,2013-01-20 20:12:00,
2013-01-20 20:22:00,7.0,3.0,-100.00,West,280,16.0,21.0,83,0.00,,,0.00,,2013-01-20 20:22:00,
2013-01-20 20:33:00,8.0,3.0,-100.00,West,280,16.0,20.0,84,0.00,,,0.00,,2013-01-20 20:33:00,
2013-01-20 20:42:00,8.0,5.0,-100.00,West,280,18.0,22.0,87,0.00,,,0.00,,2013-01-20 20:42:00,
2013-01-20 20:53:00,8.0,5.0,-100.00,WNW,285,16.0,21.0,91,0.00,,,0.00,,2013-01-20 20:53:00,
2013-01-20 21:03:00,8.0,7.0,-100.00,WNW,290,12.0,21.0,95,0.00,,,0.00,,2013-01-20 21:03:00,
2013-01-20 21:13:00,8.0,7.0,-100.00,WNW,290,12.0,18.0,94,0.00,,,0.00,,2013-01-20 21:13:00,
2013-01-20 21:23:00,8.0,5.0,-100.00,WNW,295,14.0,22.0,88,0.00,,,0.00,,2013-01-20 21:23:00,
2013-01-20 21:33:00,8.0,5.0,-100.00,WNW,285,14.0,22.0,88,0.00,,,0.00,,2013-01-20 21:33:00,
2013-01-20 21:43:00,8.0,7.0,-100.00,NW,305,20.0,22.0,96,0.00,,,0.00,,2013-01-20 21:43:00,
2013-01-20 21:52:00,8.0,5.0,-100.00,WNW,290,15.0,24.0,89,0.00,,,0.00,,2013-01-20 21:52:00,
2013-01-20 22:03:00,7.0,5.0,-100.00,WNW,295,14.0,21.0,88,0.00,,,0.00,,2013-01-20 22:03:00,
2013-01-20 22:12:00,7.0,7.0,-100.00,WNW,300,17.0,22.0,95,0.00,,,0.00,,2013-01-20 22:12:00,
2013-01-20 22:22:00,7.0,7.0,-100.00,WNW,300,17.0,21.0,99,0.00,,,0.00,,2013-01-20 22:22:00,
2013-01-20 22:33:00,7.0,7.0,-100.00,NW,305,19.0,24.0,99,0.00,,,0.00,,2013-01-20 22:33:00,
2013-01-20 22:43:00,6.0,5.0,-100.00,WNW,300,20.0,25.0,99,0.00,,,0.00,,2013-01-20 22:43:00,
2013-01-20 22:52:00,6.0,3.0,-100.00,WNW,300,16.0,21.0,91,0.00,,,0.00,,2013-01-20 22:52:00,
2013-01-20 23:03:00,5.0,3.0,-100.00,NW,305,20.0,25.0,94,0.00,,,0.00,,2013-01-20 23:03:00,
2013-01-20 23:12:00,5.0,5.0,-100.00,NW,305,17.0,25.0,99,0.00,,,0.00,,2013-01-20 23:12:00,
2013-01-20 23:33:00,4.0,3.0,-100.00,NW,310,22.0,27.0,99,0.00,,,0.00,,2013-01-20 23:33:00,
2013-01-20 23:42:00,3.0,3.0,-100.00,NW,305,22.0,27.0,99,0.00,,,0.00,,2013-01-20 23:42:00,
2013-01-20 23:52:00,3.0,1.0,-100.00,NW,310,19.0,24.0,92,0.00,,,0.00,,2013-01-20 23:52:00,